[[{"header":{"parameterUnit":"m.s-1","parameterCategory":1,"la1":30.2991,"la2":30.254,"lo1":-89.0895,"lo2":-89.0444,"dy":0.0017,"dx":0.0017,"nx":28,"ny":28,"refTime":"2024-08-03T21:00:00:Z","depth":0,"parameterNumber":2,"parameterNumberName":"U-component_of_WINDS"},"data":[0,0,0,0,0,0,0,0,0,0,0,0,0,0,0,0,0,0,0,0,0,0,0,0,0,0,0,0,0,0,0,0,0,0,0,0,0,0,0,0,0,0,0,0,0,0,0,0,0,0,0,0,0,0,0,0,0,0,-3.722,-3.7225,0,-3.7779,-3.7786,-3.7792,-3.7995,-3.7993,-3.7991,-3.7989,-3.8554,-3.857,-3.8587,0,0,0,0,0,0,0,0,0,0,0,0,0,-3.6319,-3.6334,-3.7219,-3.7226,-3.7233,-3.7778,-3.7786,-3.7794,-3.7995,-3.7993,-3.7991,-3.7988,-3.8548,-3.8568,-3.8588,0,0,0,0,0,0,0,0,0,0,0,0,0,-3.6777,-3.6339,-3.7218,-3.74,-3.7421,-3.7777,-3.7786,-3.7796,-3.7996,-3.7993,-3.799,-3.7987,-3.8542,-3.8566,-3.8591,-3.8804,0,0,-3.8668,-3.8679,0,0,0,0,0,0,0,0,-3.6751,-3.681,-3.7366,-3.7388,-3.7413,-3.7815,-3.7676,-3.8133,-3.7997,-3.7777,-3.7989,-3.7986,-3.8309,-3.8354,-3.8465,-3.883,-3.8854,-3.867,-3.8685,-3.8696,-3.8703,0,0,0,0,0,0,0,-3.6719,-3.6787,-3.744,-3.7374,-3.7402,-3.7451,-3.7513,-3.7763,-3.8052,-3.7796,-3.7812,-3.7876,-3.8322,-3.844,-3.8479,-3.8863,-3.8669,-3.8692,-3.8707,-3.8717,-3.9434,-3.9438,0,0,0,0,0,0,-3.6658,-3.6759,-3.7423,-3.7457,-3.7068,-3.747,-3.7539,-3.7688,-3.805,-3.8103,-3.7878,-3.7884,-3.8398,-3.845,-3.85,-3.8776,-3.8696,-3.872,-3.8734,-3.9431,-3.9435,-3.944,0,0,0,0,0,0,-3.6637,-3.6715,-3.74,-3.7113,-3.7204,-3.7489,-3.7654,-3.7701,-3.782,-3.8112,-3.8164,-3.7946,-3.8398,-3.8464,-3.8728,-3.8798,-3.8731,-3.8754,-3.9426,-3.9432,-3.9437,-3.9326,0,0,0,0,0,0,-3.6611,-3.6706,-3.6791,-3.7113,-3.7219,-3.762,-3.7659,-3.7714,-3.7863,-3.7876,-3.819,-3.8239,-3.8401,-3.8689,-3.8753,-3.8831,-3.8774,-3.9421,-3.9429,-3.9436,-3.9324,-3.9327,-3.9329,0,0,0,0,0,-3.6578,-3.6734,-3.6794,-3.6873,-3.7331,-3.7624,-3.7684,-3.7869,-3.7868,-3.7955,-3.8144,-3.8229,-3.878,-3.8715,-3.8788,-3.8875,-3.9417,-3.9426,-3.9435,-3.9323,-3.9327,-3.9329,0,0,0,0,0,0,-3.6409,-3.678,-3.685,-3.7116,-3.7337,-3.7657,-3.7773,-3.7866,-3.809,-3.8092,-3.831,-3.8379,-3.8626,-3.8777,-3.8698,-3.9102,-3.9104,-3.9128,-3.8994,-3.8999,-3.9002,-3.896,-3.8795,0,0,0,0,0,-3.6403,-3.6612,-3.6924,-3.7129,-3.7237,-3.7485,-3.7619,-3.7744,-3.7981,-3.8074,-3.8282,-3.8506,-3.8731,-3.8873,-3.9096,-3.9348,-3.942,-3.9444,-3.9446,-3.9446,-3.9464,-3.9612,-3.9626,-3.9469,-3.9469,-3.9468,0,0,-3.6392,-3.6621,-3.6738,-3.7101,-3.7287,-3.7497,-3.7562,-3.7781,-3.794,-3.8107,-3.837,-3.853,-3.8795,-3.9054,-3.9179,-3.9188,-3.9524,-3.9458,-3.9456,-3.9474,-3.9622,-3.9637,-3.965,-3.9475,-3.9474,-3.9473,0,0,-3.648,-3.6673,-3.6867,-3.7053,-3.7336,-3.7501,-3.7547,-3.7855,-3.797,-3.8238,-3.8369,-3.8559,-3.894,-3.9125,-3.9268,-3.943,-3.9517,-3.9496,-3.9508,-3.9649,-3.9662,-3.9674,-3.9733,-3.9751,-3.9513,-3.9513,-3.9513,0,-3.6429,-3.6754,-3.6953,-3.7168,-3.7324,-3.749,-3.7687,-3.7857,-3.8195,-3.8298,-3.8305,-3.879,-3.8979,-3.9285,-3.9326,-3.9436,-3.9495,-3.9461,-3.9644,-3.9659,-3.9673,-3.9732,-3.9753,-3.9509,-3.9509,-3.951,-3.951,0,-3.6679,-3.6903,-3.7024,-3.7353,-3.7522,-3.7726,-3.7955,-3.8103,-3.8213,-3.8377,-3.8649,-3.8884,-3.9158,-3.924,-3.9347,-3.9563,-3.956,-3.9602,-3.9609,-3.968,-3.9739,-3.9763,-3.9502,-3.9504,-3.9505,-3.9506,0,0,-3.6673,-3.7113,-3.7154,-3.7306,-3.7632,-3.7808,-3.802,-3.8292,-3.8415,-3.8643,-3.8827,-3.9148,-3.9191,-3.9353,-3.9484,-3.9608,-3.9724,-3.9637,-3.9646,-3.9645,-3.9977,-3.9943,-3.9966,-3.9784,-3.9789,-3.9793,-3.9955,0,-3.6804,-3.7194,-3.7381,-3.7688,-3.7898,-3.806,-3.8245,-3.8464,-3.8624,-3.8824,-3.8999,-3.9224,-3.9263,-3.9363,-3.9493,-3.9682,-3.9793,-3.9673,-3.9956,-3.9963,-3.9884,-3.9997,-3.9961,-4.0102,-3.9979,-3.9983,-3.9986,0,-3.7009,-3.7242,-3.757,-3.7876,-3.797,-3.8133,-3.84,-3.8589,-3.8841,-3.8949,-3.9133,-3.9261,-3.949,-3.9481,-3.9799,-3.9713,-3.984,-3.9951,-3.9961,-3.9994,-3.9978,-4.0033,-4.0152,-4.0172,-4.0024,-4.0021,-4.0019,0,-3.6973,-3.7368,-3.7618,-3.7742,-3.8104,-3.8215,-3.837,-3.8621,-3.8773,-3.9005,-3.9107,-3.936,-3.9499,-3.9692,-3.9885,-3.9861,-4.0185,-4.0192,-4.028,-4.0275,-4.034,-4.0333,-4.0481,-4.0421,-4.0421,-4.042,-4.042,0,-3.71,-3.7294,-3.7607,-3.7759,-3.7983,-3.8196,-3.8411,-3.8578,-3.88,-3.8987,-3.9142,-3.9314,-3.9559,-3.9762,-3.9914,-4.0155,-4.0216,-4.0309,-4.0347,-4.0296,-4.0284,-4.0381,-4.0376,-4.0426,-4.0425,-4.0424,-4.0423,0,-3.7096,-3.7313,-3.7596,-3.7917,-3.8002,-3.8152,-3.8427,-3.8581,-3.875,-3.8985,-3.9053,-3.9317,-3.9565,-3.9777,-4.0101,-4.0204,-4.0453,-4.0499,-4.0368,-4.0389,-4.0466,-4.0456,-4.0681,-4.0722,-4.0633,-4.0633,-4.0634,0,-3.7162,-3.7317,-3.7656,-3.7795,-3.7949,-3.8169,-3.8328,-3.8545,-3.8702,-3.9004,-3.9122,-3.9381,-3.96,-3.9988,-4.0207,-4.0457,-4.051,-4.0572,-4.0548,-4.0492,-4.0512,-4.05,-4.0518,-4.0572,-4.0572,-4.0571,-4.0571,0,-3.7258,-3.7359,-3.7582,-3.7845,-3.8031,-3.8247,-3.8467,-3.8571,-3.8828,-3.8998,-3.9255,-3.9425,-3.976,-4.0015,-4.029,-4.0448,-4.0553,-4.0578,-4.0612,-4.056,-4.0479,-4.0525,-4.0371,-4.0571,-4.0571,-4.0571,-4.0571,-4.0571,-3.7293,-3.7439,-3.7702,-3.7946,-3.8136,-3.8339,-3.8501,-3.8693,-3.8912,-3.9203,-3.9318,-3.958,-3.9832,-4.0212,-4.0371,-4.0579,-4.0595,-4.0643,-4.0656,-4.0664,-4.0657,-4.0446,-4.0629,-4.063,-4.063,-4.063,-4.0631,0,-3.7397,-3.7575,-3.7798,-3.8104,-3.8297,-3.8383,-3.8632,-3.8787,-3.9017,-3.9244,-3.9459,-3.9755,-4.0005,-4.0246,-4.0508,-4.0628,-4.0683,-4.0689,-4.0682,-4.0718,-4.0627,-4.0572,-4.0641,-4.0641,-4.0641,-4.0641,-4.0641,-4.0641,-3.7473,-3.7726,-3.7858,-3.8207,-3.8385,-3.8645,-3.8781,-3.8969,-3.9152,-3.9477,-3.9687,-3.9845,-4.0078,-4.036,-4.0593,-4.0657,-4.0746,-4.074,-4.0817,-4.0727,-4.0723,-4.072,-4.0669,-4.0758,-4.0758,-4.0891,-4.0892,-4.0893]},{"header":{"parameterUnit":"m.s-1","parameterCategory":1,"la1":30.2991,"la2":30.254,"lo1":-89.0895,"lo2":-89.0444,"dy":0.0017,"dx":0.0017,"nx":28,"ny":28,"refTime":"2024-08-03T21:00:00:Z","depth":0,"parameterNumber":3,"parameterNumberName":"V-component_of_WINDS"},"data":[0,0,0,0,0,0,0,0,0,0,0,0,0,0,0,0,0,0,0,0,0,0,0,0,0,0,0,0,0,0,0,0,0,0,0,0,0,0,0,0,0,0,0,0,0,0,0,0,0,0,0,0,0,0,0,0,0,0,-1.4271,-1.4271,0,-1.4273,-1.4273,-1.4273,-1.4219,-1.4217,-1.4216,-1.4214,-1.4226,-1.4227,-1.4229,0,0,0,0,0,0,0,0,0,0,0,0,0,-1.4227,-1.4228,-1.4271,-1.4271,-1.4271,-1.4273,-1.4273,-1.4273,-1.4219,-1.4217,-1.4215,-1.4214,-1.4225,-1.4227,-1.4229,0,0,0,0,0,0,0,0,0,0,0,0,0,-1.424,-1.4229,-1.4271,-1.4244,-1.4242,-1.4273,-1.4273,-1.4273,-1.4219,-1.4217,-1.4215,-1.4213,-1.4225,-1.4227,-1.423,-1.429,0,0,-1.4237,-1.4238,0,0,0,0,0,0,0,0,-1.4239,-1.4242,-1.4248,-1.4246,-1.4243,-1.4243,-1.4262,-1.4279,-1.422,-1.4228,-1.4214,-1.4212,-1.4234,-1.4236,-1.4241,-1.429,-1.4291,-1.4238,-1.4239,-1.424,-1.4241,0,0,0,0,0,0,0,-1.4238,-1.4241,-1.4272,-1.4248,-1.4245,-1.4234,-1.4234,-1.4265,-1.4244,-1.4227,-1.4223,-1.4224,-1.4232,-1.4239,-1.4241,-1.4291,-1.4237,-1.424,-1.4241,-1.4242,-1.4388,-1.439,0,0,0,0,0,0,-1.424,-1.4241,-1.4272,-1.4272,-1.4235,-1.4237,-1.4236,-1.4246,-1.4243,-1.4241,-1.4226,-1.4221,-1.4236,-1.4238,-1.4241,-1.4311,-1.424,-1.4243,-1.4244,-1.4386,-1.4389,-1.4391,0,0,0,0,0,0,-1.4239,-1.4243,-1.4272,-1.4255,-1.4258,-1.424,-1.4251,-1.4247,-1.4253,-1.4242,-1.4239,-1.4236,-1.4234,-1.4238,-1.4277,-1.4311,-1.4244,-1.4246,-1.4383,-1.4387,-1.439,-1.4451,0,0,0,0,0,0,-1.4238,-1.4243,-1.4265,-1.4256,-1.4259,-1.4306,-1.4253,-1.4249,-1.4257,-1.4251,-1.4251,-1.4249,-1.4233,-1.4274,-1.428,-1.4313,-1.4248,-1.438,-1.4385,-1.4389,-1.4446,-1.4456,-1.4465,0,0,0,0,0,-1.4237,-1.4284,-1.4266,-1.427,-1.4285,-1.4308,-1.431,-1.4288,-1.426,-1.4282,-1.4274,-1.4249,-1.4305,-1.4278,-1.4284,-1.4319,-1.4378,-1.4383,-1.4389,-1.4442,-1.4454,-1.4465,0,0,0,0,0,0,-1.4301,-1.4283,-1.4262,-1.4308,-1.4309,-1.4299,-1.4326,-1.4302,-1.4315,-1.4309,-1.4284,-1.4284,-1.4328,-1.4327,-1.4297,-1.4376,-1.4337,-1.4344,-1.4375,-1.4387,-1.4396,-1.4397,-1.425,0,0,0,0,0,-1.432,-1.4337,-1.4321,-1.4363,-1.4364,-1.4345,-1.4355,-1.4337,-1.4339,-1.434,-1.4336,-1.4341,-1.436,-1.4373,-1.439,-1.4445,-1.4445,-1.4472,-1.4481,-1.4489,-1.4496,-1.4524,-1.4536,-1.4409,-1.4409,-1.4409,0,0,-1.436,-1.4352,-1.4366,-1.4376,-1.4375,-1.4396,-1.4346,-1.4371,-1.4387,-1.4345,-1.4381,-1.4378,-1.4382,-1.4429,-1.445,-1.443,-1.453,-1.4496,-1.4502,-1.4505,-1.4531,-1.4543,-1.4554,-1.4412,-1.4412,-1.4411,0,0,-1.4444,-1.4439,-1.4473,-1.4472,-1.447,-1.4456,-1.4464,-1.4457,-1.4452,-1.4486,-1.4455,-1.4474,-1.4508,-1.4511,-1.4518,-1.46,-1.4577,-1.4606,-1.4657,-1.4685,-1.4695,-1.4704,-1.4734,-1.4744,-1.4613,-1.4613,-1.4613,0,-1.4496,-1.4523,-1.4494,-1.452,-1.4526,-1.4484,-1.4519,-1.4521,-1.4526,-1.4532,-1.4508,-1.4547,-1.4547,-1.4594,-1.4614,-1.462,-1.463,-1.4607,-1.4695,-1.4704,-1.4712,-1.474,-1.4751,-1.4617,-1.4616,-1.4616,-1.4616,0,-1.4586,-1.4606,-1.4634,-1.4636,-1.4644,-1.4675,-1.4652,-1.4665,-1.4646,-1.4635,-1.4671,-1.4669,-1.4684,-1.4693,-1.4677,-1.4738,-1.4725,-1.4699,-1.4659,-1.4728,-1.4754,-1.4764,-1.4622,-1.4621,-1.4619,-1.4619,0,0,-1.4714,-1.4696,-1.4707,-1.4707,-1.47,-1.4716,-1.4745,-1.4756,-1.4767,-1.4772,-1.4796,-1.4823,-1.4798,-1.4805,-1.4788,-1.4812,-1.4877,-1.4783,-1.4783,-1.4801,-1.4945,-1.4965,-1.4978,-1.4861,-1.4863,-1.4864,-1.4944,0,-1.4796,-1.4841,-1.4814,-1.4864,-1.4883,-1.4842,-1.4867,-1.4867,-1.4857,-1.4873,-1.4863,-1.4882,-1.4847,-1.4851,-1.4873,-1.4865,-1.4906,-1.4858,-1.4886,-1.4887,-1.4887,-1.4992,-1.5014,-1.509,-1.4954,-1.4956,-1.4957,0,-1.4898,-1.4902,-1.4953,-1.4941,-1.4948,-1.497,-1.4978,-1.4992,-1.4991,-1.4982,-1.4988,-1.4965,-1.4994,-1.4952,-1.4992,-1.4961,-1.497,-1.4967,-1.497,-1.4973,-1.4928,-1.4999,-1.5114,-1.5126,-1.4973,-1.4972,-1.4971,0,-1.4986,-1.5005,-1.5038,-1.5039,-1.5026,-1.5042,-1.5038,-1.5034,-1.5042,-1.5049,-1.5054,-1.5066,-1.5073,-1.5083,-1.5063,-1.5035,-1.5106,-1.5064,-1.5101,-1.5102,-1.512,-1.512,-1.5239,-1.5124,-1.5124,-1.5124,-1.5123,0,-1.5081,-1.5114,-1.5077,-1.5097,-1.5133,-1.5102,-1.514,-1.5131,-1.5128,-1.5147,-1.5113,-1.5133,-1.5105,-1.5122,-1.5108,-1.5143,-1.5146,-1.5141,-1.5138,-1.5145,-1.5146,-1.5153,-1.5147,-1.5127,-1.5126,-1.5125,-1.5125,0,-1.5187,-1.5163,-1.5196,-1.5179,-1.5176,-1.5203,-1.519,-1.5209,-1.5195,-1.522,-1.5224,-1.5204,-1.5221,-1.5202,-1.522,-1.521,-1.5258,-1.5246,-1.5257,-1.5254,-1.5294,-1.5291,-1.5423,-1.5439,-1.5312,-1.5313,-1.5314,0,-1.525,-1.5274,-1.5258,-1.5267,-1.5264,-1.5279,-1.5285,-1.5256,-1.5265,-1.5264,-1.5283,-1.5297,-1.5307,-1.5338,-1.5327,-1.534,-1.5328,-1.5374,-1.5331,-1.5337,-1.533,-1.533,-1.5332,-1.5383,-1.5385,-1.5386,-1.5387,0,-1.5364,-1.535,-1.536,-1.5365,-1.5373,-1.5376,-1.5377,-1.5387,-1.5356,-1.5368,-1.5384,-1.5391,-1.5407,-1.5422,-1.5431,-1.5429,-1.5404,-1.54,-1.541,-1.5419,-1.5425,-1.5423,-1.5283,-1.5398,-1.5397,-1.5396,-1.5396,-1.5395,-1.5451,-1.547,-1.5461,-1.5473,-1.547,-1.5471,-1.5487,-1.5473,-1.5485,-1.5494,-1.5476,-1.5497,-1.5494,-1.5502,-1.5503,-1.552,-1.5501,-1.5515,-1.5519,-1.5523,-1.5529,-1.542,-1.5521,-1.5521,-1.5521,-1.552,-1.552,0,-1.5565,-1.5556,-1.5567,-1.5567,-1.5576,-1.5547,-1.5546,-1.5557,-1.5574,-1.5572,-1.5581,-1.5599,-1.5613,-1.56,-1.5612,-1.5628,-1.5617,-1.5632,-1.5632,-1.5632,-1.5545,-1.5536,-1.5641,-1.5641,-1.5641,-1.5641,-1.5641,-1.5641,-1.5625,-1.5655,-1.564,-1.5668,-1.566,-1.5677,-1.5679,-1.568,-1.5678,-1.5699,-1.5709,-1.5699,-1.5693,-1.5703,-1.5715,-1.5711,-1.5718,-1.5738,-1.573,-1.565,-1.5638,-1.5627,-1.5618,-1.5739,-1.5739,-1.5815,-1.5816,-1.5817]}]]